FW3161 Weather Reports


time (UTC)temp
C
wind
direction
speed
KPH
gust
KPH
rain 1hr
cm
rain 24hr
cm
rain mn
cm
humidity
%
barometer
mb
20260502161519 28 360 14.5 30.6 0.00 0.00 0.00 15 1012.6
20260502151515 26 98 6.4 12.9 0.00 0.00 0.00 13 1012.3
20260502123048 22 360 4.8 12.9 0.00 0.00 0.00 14 1010.3
20260502121538 22 360 6.4 17.7 0.00 0.00 0.00 14 1010.1
20260502114537 22 360 4.8 6.4 0.00 0.00 0.00 16 1010.1
20260502113036 21 360 4.8 6.4 0.00 0.00 0.00 16 1010.0
20260502111538 21 360 1.6 8.0 0.00 0.00 0.00 17 1010.0
20260502110033 22 360 4.8 8.0 0.00 0.00 0.00 17 1009.9
20260502104535 22 360 3.2 4.8 0.00 0.00 0.00 16 1009.9
20260502103032 22 360 1.6 6.4 0.00 0.00 0.00 16 1009.9
20260502101528 22 360 1.6 4.8 0.00 0.00 0.00 17 1009.8
20260502091524 22 360 4.8 9.7 0.00 0.00 0.00 15 1009.5
20260502071502 25 360 4.8 9.7 0.00 0.00 0.00 8 1008.6
20260502070059 25 360 4.8 8.0 0.00 0.00 0.00 8 1008.6
20260502064606 25 360 3.2 8.0 0.00 0.00 0.00 8 1008.7
20260502063106 25 360 3.2 8.0 0.00 0.00 0.00 8 1008.6
20260502061611 25 360 4.8 8.0 0.00 0.00 0.00 8 1008.5
20260502060048 26 360 4.8 14.5 0.00 0.00 0.00 8 1008.3
20260502054543 26 360 3.2 12.9 0.00 0.00 0.00 7 1008.3
20260502053040 26 360 3.2 9.7 0.00 0.00 0.00 7 1008.2
20260502051535 27 360 3.2 8.0 0.00 0.00 0.00 6 1008.2
20260502050031 27 360 1.6 6.4 0.00 0.00 0.00 6 1008.1
20260502044526 27 360 4.8 6.4 0.00 0.00 0.00 5 1007.9
20260502043024 27 360 4.8 8.0 0.00 0.00 0.00 5 1007.9
20260502041525 28 360 3.2 6.4 0.00 0.00 0.00 5 1007.7
20260502040015 27 360 1.6 4.8 0.00 0.00 0.00 5 1007.6
20260502034509 28 360 1.6 6.4 0.00 0.00 0.00 5 1007.5
20260502033004 28 360 3.2 9.7 0.00 0.00 0.00 4 1007.3
20260502031502 28 360 3.2 6.4 0.00 0.00 0.00 4 1007.2
20260502030106 29 360 1.6 8.0 0.00 0.00 0.00 4 1007.0
20260502023049 30 360 3.2 9.7 0.00 0.00 0.00 3 1006.7
20260502021546 30 360 3.2 16.1 0.00 0.00 0.00 3 1006.6
20260502020040 31 360 6.4 14.5 0.00 0.00 0.00 4 1006.5
20260502014534 31 360 8.0 17.7 0.00 0.00 0.00 3 1006.4
20260502013030 31 360 4.8 17.7 0.00 0.00 0.00 3 1006.4
20260502011530 31 184 4.8 17.7 0.00 0.00 0.00 4 1006.4
20260502010021 32 210 4.8 9.7 0.00 0.00 0.00 4 1006.6
20260502004520 32 209 4.8 11.3 0.00 0.00 0.00 4 1006.5
20260502003020 32 243 4.8 17.7 0.00 0.00 0.00 4 1006.6
20260502001520 32 202 1.6 11.3 0.00 0.00 0.00 5 1006.7
20260502000016 32 202 4.8 14.5 0.00 0.00 0.00 6 1006.8
20260501234516 32 211 8.0 16.1 0.00 0.00 0.00 6 1006.8
20260501233015 32 229 6.4 14.5 0.00 0.00 0.00 6 1006.9
20260501231513 32 181 9.7 17.7 0.00 0.00 0.00 7 1007.0
20260501230012 31 225 6.4 16.1 0.00 0.00 0.00 7 1007.1
20260501224510 31 196 6.4 17.7 0.00 0.00 0.00 8 1007.3
20260501223012 31 252 8.0 16.1 0.00 0.00 0.00 7 1007.4
20260501221509 31 241 1.6 19.3 0.00 0.00 0.00 8 1007.7
20260501220007 31 169 6.4 22.5 0.00 0.00 0.00 7 1008.0
20260501214505 31 254 1.6 12.9 0.00 0.00 0.00 9 1008.1
20260501213005 31 202 9.7 19.3 0.00 0.00 0.00 10 1008.5
20260501211503 31 162 4.8 16.1 0.00 0.00 0.00 9 1008.5
20260501210002 30 213 6.4 25.7 0.00 0.00 0.00 10 1008.8
20260501204501 30 145 3.2 19.3 0.00 0.00 0.00 11 1009.0
20260501203104 30 286 4.8 17.7 0.00 0.00 0.00 11 1009.0
20260501201559 30 216 1.6 17.7 0.00 0.00 0.00 11 1009.1
20260501200056 30 243 8.0 19.3 0.00 0.00 0.00 11 1009.2
20260501194601 30 238 6.4 14.5 0.00 0.00 0.00 12 1009.4
20260501193054 30 186 3.2 14.5 0.00 0.00 0.00 12 1009.7
20260501191554 29 154 4.8 12.9 0.00 0.00 0.00 13 1009.9
20260501190050 28 304 4.8 9.7 0.00 0.00 0.00 17 1010.1
20260501184549 28 182 1.6 9.7 0.00 0.00 0.00 15 1010.3
20260501183048 28 205 1.6 12.9 0.00 0.00 0.00 15 1010.4
20260501181551 28 266 3.2 14.5 0.00 0.00 0.00 15 1010.7
20260501180044 27 360 1.6 9.7 0.00 0.00 0.00 15 1010.9
20260501174544 27 221 4.8 11.3 0.00 0.00 0.00 16 1011.0
20260501173045 27 240 4.8 14.5 0.00 0.00 0.00 18 1011.1
20260501171539 26 201 1.6 14.5 0.00 0.00 0.00 18 1011.2
20260501170042 26 360 1.6 14.5 0.00 0.00 0.00 19 1011.2
20260501164544 26 360 8.0 14.5 0.00 0.00 0.00 20 1011.2
20260501163037 25 360 4.8 14.5 0.00 0.00 0.00 20 1011.2